Find Starlink 35067

NORAD ID: 65527 Int'l Des: 2025-200 Owner: SPXS Country: US Constellation: starlink operational
LEOCIRCULARRETROGRADESSO

当前视图

正在加载3D地球...

About Starlink 35067

Starlink 35067 (NORAD 65527) is a starlink constellation satellite (v2 mini) launched Sep 6, 2025 by SPXS of US. It operates in LEO, CIRCULAR, RETROGRADE, SSO orbit with a mass of 575.00 kg.

即将过境

Passes for default location (London). Set your location on the main map for personalized predictions.

高度历史

Loading altitude history...

两行轨道根数

1 65527U 25200H 26263.45636190 .00014680 00000-0 45578-3 0 9998
2 65527 97.2829 329.8248 0002693 94.4553 265.6997 15.33469448 58622
Epoch: Sep 20, 2026 • Age: 22 hours

当前状态

高度 491.3 km
远地点 / 近地点 N/A
速度 7.62 km/s
星下点 -63.22°S, 143.93°W
发射日期 Sep 6, 2025
运行时间 1 year
类型 internet

技术详情

分类 Payload
质量 575.00 kg
干质量 530.00 kg
长度 0.30 m
跨度 29.00 m
形状 ? Box + pan
制造商 SPXS
平台类型 Starlink V2MO
阶段状态 In Orbit
所有者/国家 SPXS/US

Most Searched